Current Version              Previous Version:    01  02  03  04  05  06  07  08  09  10  11  12  13  14  15  16  17  18  19  20  21  22  23  24  25  26  27  28  29  30  
   31  32  33  34  35  36  37  38  39  40  41  42  43  44  45  46  47  48  49  50  51  52  53  54  55  56  57  58  59  60  

[Printable]
225
ASUS44 KLUB 211410
RWRTX
WEST TEXAS WEATHER ROUNDUP
NATIONAL WEATHER SERVICE LUBBOCK TX
900 AM CDT MON APR 21 2014

NOTE: "FAIR" INDICATES FEW OR NO CLOUDS BELOW 12,000 FEET WITH NO
SIGNIFICANT WEATHER AND/OR OBSTRUCTIONS TO VISIBILITY.

TXZ004-006>008-010-012-014-016-OKZ002-211500-
TEXAS PANHANDLE/OKLAHOMA PANHANDLE

CITY           SKY/WX    TMP DP  RH WIND       PRES   REMARKS
AMARILLO       SUNNY     59  47  64 NW10      30.09R
BORGER         SUNNY     60  47  61 VRB5      30.08R
CANADIAN       CLOUDY    59  57  92 N7        30.05R FOG
DALHART        SUNNY     60  42  51 N15       30.13R
DUMAS          SUNNY     61  45  56 NW18      30.10R
GUYMON         SUNNY     61  45  55 N18G26    30.07R
HEREFORD       SUNNY     60  45  56 NW14      30.11R
PAMPA          SUNNY     54  53  97 N12       30.07R
PERRYTON       CLOUDY    56  55  99 NW7       30.06R
$$

TXZ026-029-035-045-048-211500-
SOUTHERN PANHANDLE/SOUTH PLAINS/ROLLING PLAINS

CITY           SKY/WX    TMP DP  RH WIND       PRES   REMARKS
CHILDRESS      CLOUDY    61  59  93 N10       30.01R
SEMINOLE       SUNNY     61  53  75 W6        30.11S
LUBBOCK        SUNNY     59  48  67 NW14      30.06R
PLAINVIEW      SUNNY     57  48  71 NW10      30.06R
SNYDER         PTSUNNY   65  60  86 SW16      30.06R FOG
$$

TXZ052-054-060>062-072-078-127-140-154-169-211500-
PERMIAN BASIN/CONCHO VALLEY/BIG COUNTRY/EDWARDS PLATEAU

CITY           SKY/WX    TMP DP  RH WIND       PRES   REMARKS
ABILENE        MOSUNNY   70  61  73 W15       30.01R
BIG SPRING     CLOUDY    66  61  84 W10       30.10R
BRADY          CLOUDY    70  64  83 S13       30.03F
BROWNWOOD      CLOUDY    66  64  94 S8        30.03R
JUNCTION       MOSUNNY   70  62  76 SW9       30.05S
MIDLAND        SUNNY     65  61  87 SW13      30.08R
ODESSA         MOSUNNY   64  60  87 SW8       30.10R FOG
SAN ANGELO     CLOUDY    69  63  81 SW17G26   30.04S
SONORA         CLOUDY    66  64  94 SW8       30.08S FOG
SWEETWATER     MOSUNNY   68  62  80 SW22G29   30.07R
WINK             N/A     59  59 100 CALM      30.08R
$$

TXZ055-058-074-075-080-082-211500-
FAR WEST/SOUTHWEST MOUNTAINS/TRANS PECOS

CITY           SKY/WX    TMP DP  RH WIND       PRES   REMARKS
ALPINE         SUNNY     63  49  60 SW5       30.23S
DRYDEN           N/A     71  64  78 N3        30.06S
EL PASO        MOSUNNY   61  41  47 CALM      30.13R
FORT STOCKTON  SUNNY     66  54  65 SW14      30.10R
GUADALUPE PASS SUNNY     57  36  45 S8        30.22R
MARFA          SUNNY     59  46  63 NW3       30.22R
PECOS          SUNNY     57  46  65 CALM      30.09R
PRESIDIO       FAIR      70  43  38 N3        30.12R
$$

TXZ014-016-019-021>030-083-211500
TEXAS TECH WEST TEXAS MESONET/TEXAS PANHANDLE/NORTHERN SOUTH PLAINS

CITY           SKY/WX    TMP DP  RH WIND       PRES   REMARKS
ABERNATHY 5ENE   N/A     59  48  68 NW13      30.08R
AMARILLO 9NNE    N/A     58  48  67 NW6       30.09R
AMARILLO 7SSE    N/A     60  48  63 N15       30.09R
AMHERST 1NE      N/A     58  49  71 NW12      30.10R
BOOTLEG 11WNW    N/A     62  42  47 NW14      30.17R
CANADIAN 6E      N/A     58  55  89 N9        30.03R
CAPROCK CYN SP   N/A     65  49  56 N7        30.03R
CHILDRESS 2NNE   N/A     60  59  97 N8        30.01R
CLARENDON 2WSW   N/A     58  51  79 N8        30.04R
CLAUDE 12SW      N/A     58  49  71 NW17      30.07R
DIMMITT 2NE      N/A     57  47  69 NW13      30.10R
FLOYDADA 2NNE    N/A     58  48  68 NW9       30.05R
FRIONA 2NE       N/A     58  48  68 NW8       30.13R
GOODLETT 3W      N/A     63  60  87 N7        29.99R
HART 3N          N/A     58  46  65 NW14      30.09R
HEREFORD 2NW     N/A     58  46  63 NW12      30.11S
MCLEAN 1E        N/A     53  52  98 NW14      30.04R
MEMPHIS 1NE      N/A     60  57  90 N10       30.02R
MULESHOE 2SSW    N/A     55  49  81 W3        30.12R
OLTON 6S         N/A     58  47  65 NW12      30.09R
PALO DURO SP     N/A     63  46  54 NW14      30.09R
PAMPA 2E         N/A     55  53  95 NW10      30.06R
PLAINVIEW 1S     N/A     58  48  68 NW10      30.07R
SILVERTON 7ESE   N/A     57  50  77 NW10      30.05R
TULIA 2ENE       N/A     62  46  56 NW17      30.07R
TURKEY 2WSW      N/A     62  51  69 NW13      30.01R
UMBARGER 3NNE    N/A     58  47  67 NW10      30.11R
$$

TXZ033>036-039>041-045>048-211500
TEXAS TECH WEST TEXAS MESONET/SOUTH PLAINS

CITY           SKY/WX    TMP DP  RH WIND       PRES   REMARKS
AIKEN 3WSW       N/A     58  48  69 NW14      30.07R
ANDREWS 2NE      N/A     60  58  92 SW5       30.10R
ANTON 6SSW       N/A     60  50  69 NW12      30.09R
BROWNFIELD 2S    N/A     58  47  67 NW8       30.09R
DENVR CTY 7WNW   N/A     60  44  54 NW8       30.11R
GAIL 2ESE        N/A     64  58  79 W10       30.06R
LAMESA 2SE       N/A     59  55  86 W9        30.09S
LEVELLAND 4S     N/A     63  43  47 NW10      30.09S
LUBBOCK 3WNW     N/A     59  48  65 NW6       30.08R
MORTON 1ENE      N/A     58  46  65 W6        30.11R
ODONNELL 1N      N/A     58  50  74 W6        30.08S
PLAINS 3N        N/A     63  44  49 NW9       30.11R
RALLS 1SE        N/A     60  46  61 NW9       30.07R
REESE CENTER     N/A     60  47  63 NW14      30.08S
SEAGRAVES 1SW    N/A     60  49  65 NW3       30.10R
SEMINOLE 2NNE    N/A     60  50  69 W5        30.11R
SLATON 2NE       N/A     62  47  57 NW10      30.07R
SNYDER 3E        N/A     64  59  82 SW12      30.05R
SUNDOWN 8SW      N/A     63  43  48 NW9       30.10R
TAHOKA 3NNE      N/A     62  46  57 NW7       30.07R
WOLFFORTH 6SSW   N/A     57  48  71 NW9       30.09R
$$

TXZ031-032-036>038-042>044-211500-
TEXAS TECH WEST TEXAS MESONET/ROLLING PLAINS

CITY           SKY/WX    TMP DP  RH WIND       PRES   REMARKS
ASPERMONT 3NE    N/A     68  61  77 W8        30.00R
FLUVANNA 3WNW    N/A     64  57  80 SW10      30.05S
GRAHAM 5SSW      N/A     58  50  74 W9        30.06S
GUTHRIE 10WSW    N/A     64  56  74 W8        30.00R
HASKELL 1NW      N/A     67  61  79 SW12      29.99R
JAYTON 1SSE      N/A     66  60  79 W9        30.01R
KNOX CITY 3NW    N/A     67  59  75 W10       29.99R
LK A HENRY 1NW   N/A     65  59  79 W12       30.03S
NORTHFIELD 1S    N/A     60  57  88 NW7       30.01R
ODELL 4ENE       N/A     66  64  94 NW6       29.99R
PADUCAH 10SW     N/A     62  54  74 W5        30.01R
POST 1NE         N/A     64  48  55 W6        30.05R
RRING SPRGS 3N   N/A     63  50  62 W8        30.02R
SEYMOUR 3NW      N/A     66  61  82 W13       29.98R
SPUR 1W          N/A     63  48  57 W9        30.02R
WEINERT 2NNE     N/A     66  61  82 W9        29.99R
WHITE RVR 6NE    N/A     65  45  47 NW13      30.03S
$$

TXZ052-054-060>062-072-078-127-140-154-169-211500-
TEXAS TECH WEST TEXAS MESONET/PERMIAN BASIN/
CONCHO VALLEY/BIG COUNTRY/EDWARDS PLATEAU

CITY           SKY/WX    TMP DP  RH WIND       PRES   REMARKS
COYANOSA 2N      N/A     64  55  71 NW3       30.09R
JUNCTION 1SSW    N/A     70  63  78 SW6       30.06S
MERTZON 3NNE     N/A     67  62  82 SW15      30.06S
SAN ANGELO 7NW   N/A     69  61  77 SW16      30.04S
STRLNG CT 4WSW   N/A     68  62  80 SW13      30.06S
ST LAWRNCE 5SW   N/A     64  62  91 SW17      30.06S
SWEETWATR 11SW   N/A     66  61  82 W15       30.06S
WALL 1E          N/A     69  61  76 SW21      30.03F
$$

TXZ055-058-074-075-080-082-211500-
TEXAS TECH WEST TEXAS MESONET/FAR WEST/SOUTHWEST MOUNTAINS/TRANS PECOS

CITY           SKY/WX    TMP DP  RH WIND       PRES   REMARKS
PRSMN GAP BBNP   N/A     68  60  76 E2        30.11R
GUADLPE MTN NP   N/A     64  35  34 S5        30.22R
$$